Flag for Slovenia Weather past 2 weeks in Celje, Slovenia

Now
74 °F

Mild.


Feels Like: 75 °F
Forecast: 60 / 80 °F
Wind: 2 mph from East

Location: Celje

Current Time: Aug 1, 2014 at 12:15:13 PM

Latest Report: Aug 1, 2014 at 11:00 AM


Visibility: N/A

Pressure: 29.87 "Hg

Humidity: 76%

Dew point: 66 °F

Location of CeljeLocation

Historic Weather in Celje — Graph

°F

Celje temperature yesterday

Maximum temperature yesterday: 73 °F (at 2:00 PM)
Minimum temperature yesterday: 60 °F (at 1:00 AM)
Average temperature yesterday: 66 °F

Past Weeks' High & Low Weather Summary

 TemperatureHumidityPressure
High89 °F (Jul 20, 3:00 PM)99% (Jul 31, 5:00 AM)30.11 "Hg (Jul 31, 5:00 AM)
Low55 °F (Jul 24, 6:00 AM)41% (Jul 23, 7:00 PM)29.70 "Hg (Jul 30, 7:00 PM)
Average69 °F81%29.88 "Hg
* Reported Jul 17 11:00 AM — Aug 1 11:00 AM, Celje, Weather by CustomWeather, © 2014

Note: Actual official high and low records may vary slightly from our data, if they occured in-between our weather recording intervals... More about our weather records

Advertising

Celje weather history for previous 24 hours

 ConditionsComfort  
Time TempWeatherWind HumidityBarometerVisibility
11:00 AM
Aug 1
74 °FMild.2 mph76%29.87 "HgN/A
10:00 AM70 °FMild.1 mph88%29.88 "HgN/A
9:00 AM68 °FMild.1 mph93%29.88 "HgN/A
8:00 AM65 °FFog.2 mph98%29.88 "Hg2 mi
7:00 AM64 °FFog.1 mph99%29.88 "Hg5 mi
6:00 AM63 °FMild.No wind98%29.89 "HgN/A
5:00 AM63 °FMild.No wind99%29.89 "HgN/A
4:00 AM62 °FCool.1 mph98%29.88 "HgN/A
3:00 AM62 °FCool.No wind98%29.89 "HgN/A
2:00 AM64 °FMild.1 mph97%29.89 "HgN/A
1:00 AM65 °FMild.1 mph97%29.89 "HgN/A
12:00 AM67 °FMild.1 mph97%29.90 "HgN/A
11:00 PM
Jul 31
67 °FMild.2 mph97%29.89 "HgN/A
10:00 PM67 °FMild.No wind96%29.88 "HgN/A
9:00 PM67 °FMild.2 mph95%29.86 "HgN/A
8:00 PM68 °FOvercast.1 mph95%29.85 "Hg12 mi
7:00 PM69 °FMild.1 mph93%29.84 "HgN/A
6:00 PM73 °FMild.3 mph81%29.82 "HgN/A
5:00 PM71 °FMild.2 mph86%29.82 "HgN/A
4:00 PM72 °FMild.1 mph83%29.82 "HgN/A
3:00 PM69 °FSprinkles. Overcast.1 mph92%29.83 "Hg11 mi
2:00 PM73 °FSprinkles. Overcast.2 mph76%29.81 "Hg9 mi
1:00 PM73 °FMild.2 mph77%29.80 "HgN/A
12:00 PM72 °FMild.1 mph78%29.81 "HgN/A
Weather by CustomWeather, © 2014

See weather overviewHow to use our weather pages